Regional Weather Roundup
Issued by NWS Goodland, KS

Home | Current Version | Previous Version | Text Only | Print | Product List | Glossary On
Versions: 1 2 3 4 5 6 7 8 9 10 11 12 13 14 15 16 17 18 19 20 21 22 23 24 25 26 27 28 29 30 31 32 33 34 35 36 37 38 39 40 41 42 43 44 45 46 47 48 49 50
000
ASUS43 KGLD 290408
RWRGLD

GOODLAND FORECAST AREA HOURLY WEATHER ROUNDUP
NATIONAL WEATHER SERVICE GOODLAND KS
900 PM MST SUN DEC 28 2014

...OFFICIAL OBSERVATIONS...

CITY           SKY/WX    TMP DP  RH WIND       PRES   REMARKS
GOODLAND KS    PTCLDY    17  15  92 CALM      29.99R
HILL CITY KS   CLEAR     23  19  85 E3        30.06S
IMPERIAL NEB   PTCLDY    10   7  87 NW6       30.02R
MCCOOK NEB     PTCLDY    16  12  84 E5        30.04R
AKRON CO       PTCLDY    18  11  74 SW6       29.94R
BURLINGTON CO  CLEAR     16  12  84 CALM      29.97R
LIMON CO       CLEAR     13   9  84 CALM      29.93R
$$

...UNOFFICIAL OBSERVATIONS...

CITY           SKY/WX    TMP DP  RH WIND       PRES   REMARKS
COLBY KS       CLEAR     21  21 100 N9        30.02S
SHARON SPRINGS   N/A     23  20  89 CALM        N/A
TRIBUNE KS     MOCLDY    25  23  93 NW5       30.00R
KIT CARSON CO    N/A     25  22  86 MISG        N/A
YUMA CO          N/A      7   1  77 CALM        N/A
$$


USA.gov is the U.S. government's official web portal to all federal, state and local government web resources and services.